White Mountain, AK

6:14 AM AKDT on September 19, 2017 (GMT -0800)
White Mountain

Weather History for PAWM - August, 2013

Change the Weather History Date:

Tuesday, August 20, 2013

  Actual Average (PAOM) Record (PAOM)
Temperature  
Mean Temperature 50 °F -  
Max Temperature 57 °F 55 °F 78 °F (2004)
Min Temperature 42 °F 42 °F 32 °F (1980)
Degree Days  
Heating Degree Days 16    
Moisture  
Dew Point 9 °F    
Average Humidity 18    
Maximum Humidity 22    
Minimum Humidity 15    
Precipitation  
Precipitation 0.00 in - - ()
Sea Level Pressure  
Sea Level Pressure 29.78 in    
Wind  
Wind Speed 7 mph (NNW)    
Max Wind Speed 10 mph    
Max Gust Speed -    
Visibility 10 miles    
Events      
Averages and records for this station are not official NWS values.
T = Trace of Precipitation, MM = Missing Value Source: NWS Daily Summary

Daily Weather History Graph

Daily Weather History Graph

Search for Another Location

Airport or City:

Trip Planner

Search our weather history database for the weather conditions in past years. The results will help you decide how hot, cold, wet, or windy it might be!

Date:

Astronomy

Aug. 20, 2013 Rise Set
Actual Time 6:58 AM AKDT 10:52 PM AKDT
Civil Twilight 5:56 AM AKDT 11:54 PM AKDT
Nautical Twilight 4:03 AM AKDT 1:41 AM AKDT
Astronomical Twilight Sun does not set Sun does not set
Moon 9:59 PM AKDT (8/20) 6:59 AM AKDT (8/20)
Length of Visible Light 17h 58m
Length of Day
15h 54m
Full, 100% of the Moon is Illuminated
Aug 20
Full
Aug 20
Full
Aug 28
Last Quarter
Sep 5
New
Sep 12
First Quarter

Hourly Weather History & Observations

Time (AKDT) Temp. Windchill Dew Point Humidity Pressure Visibility Wind Dir Wind Speed Gust Speed Precip Events Conditions
12:58 AM 48.0 °F - 3.0 °F 16% 29.76 in 10.0 mi NNW 9.2 mph - N/A   Clear
1:58 AM 46.9 °F - 1.9 °F 16% 29.77 in 10.0 mi North 10.4 mph - N/A   Clear
2:58 AM 46.0 °F 41.4 °F 1.0 °F 16% 29.78 in 10.0 mi North 9.2 mph - N/A   Overcast
3:58 AM 45.0 °F 40.6 °F -0.0 °F 15% 29.78 in 10.0 mi North 8.1 mph - N/A   Clear
4:58 AM 44.1 °F 39.5 °F -0.9 °F 15% 29.79 in 10.0 mi North 8.1 mph - N/A   Clear
5:58 AM 44.1 °F 38.6 °F -2.0 °F 15% 29.78 in 10.0 mi North 10.4 mph - N/A   Clear
6:58 AM 43.0 °F 37.7 °F -2.9 °F 15% 29.78 in 10.0 mi North 9.2 mph - N/A   Mostly Cloudy
7:58 AM 42.1 °F 36.1 °F -2.9 °F 15% 29.78 in 10.0 mi North 10.4 mph - N/A   Partly Cloudy
8:58 AM 43.0 °F 38.8 °F -0.9 °F 16% 29.79 in 10.0 mi North 6.9 mph - N/A   Clear
9:58 AM 46.0 °F 41.9 °F 3.0 °F 17% 29.79 in 10.0 mi North 8.1 mph - N/A   Clear
10:58 AM 50.0 °F - 8.1 °F 18% 29.79 in 9.0 mi North 6.9 mph - N/A   Clear
11:58 AM 54.0 °F - 14.0 °F 21% 29.79 in 9.0 mi Calm Calm - N/A   Clear
12:39 PM 55.4 °F - 15.8 °F 21% 29.76 in 9.0 mi NW 3.5 mph - N/A   Mostly Cloudy
12:58 PM 55.9 °F - 16.0 °F 21% 29.79 in 9.0 mi Calm Calm - N/A   Overcast
1:10 PM 55.4 °F - 15.8 °F 21% 29.75 in 10.0 mi WNW 3.5 mph - N/A   Mostly Cloudy
1:16 PM 55.4 °F - 15.8 °F 21% 29.75 in 9.0 mi West 3.5 mph - N/A   Mostly Cloudy
1:42 PM 55.4 °F - 15.8 °F 21% 29.75 in 9.0 mi Calm Calm - N/A   Mostly Cloudy
1:58 PM 55.9 °F - 17.1 °F 22% 29.79 in 9.0 mi WSW 3.5 mph - N/A   Scattered Clouds
2:58 PM 57.0 °F - 15.1 °F 19% 29.79 in 10.0 mi Variable 5.8 mph - N/A   Clear
3:58 PM 57.0 °F - 15.1 °F 19% 29.79 in 9.0 mi Calm Calm - N/A   Partly Cloudy
4:58 PM 57.0 °F - 15.1 °F 19% 29.79 in 9.0 mi South 5.8 mph - N/A   Clear
5:58 PM 57.0 °F - 17.1 °F 21% 29.78 in 9.0 mi South 4.6 mph - N/A   Clear
6:58 PM 55.9 °F - 14.0 °F 19% 29.78 in 9.0 mi South 5.8 mph - N/A   Overcast
7:58 PM 55.9 °F - 14.0 °F 19% 29.78 in 10.0 mi South 5.8 mph - N/A   Scattered Clouds
8:58 PM 55.9 °F - 12.9 °F 18% 29.77 in 10.0 mi South 3.5 mph - N/A   Mostly Cloudy
9:58 PM 55.0 °F - 12.0 °F 18% 29.77 in 10.0 mi ESE 3.5 mph - N/A   Clear
10:58 PM 54.0 °F - 10.9 °F 18% 29.76 in 10.0 mi ESE 3.5 mph - N/A   Clear
11:57 PM 52.0 °F - 9.0 °F 18% 29.75 in 10.0 mi East 6.9 mph - N/A   Mostly Cloudy